2024-149CT (60557 NORAD) Tracking and Keplerian Element Data

This shows tracking and keplerian element data for the satellite.

Feedback or suggestion? Click here.




ElementValue
Catalog60557
Name2024-149CT
Epoch Orbit864
Epoch Day286.75873781
Epoch Year2024
RAAN1.3992
Inclination97.4312
Eccentricity0.0004496
Argument of Perigee251.0434
Mean Anonmoly109.0314
Mean Motion15.20553692
Decay Rate0.00029235
L11 60557U 24149CT 24286.75873781 .00029235 00000+0 13343-2 0 9997
L22 60557 97.4312 1.3992 0004496 251.0434 109.0314 15.20553692 8641



Live tracking and technical data element details for 2024-149CT (NORAD 60557). 2024-149CT can be tracked NOW for your location showing map with azimuth and elevation plus other details from your city location.







IsCatalogInMostPopularTable: catalog: 60557, numindb: 4
Update: records affected: 1



GetName: 60557 2024-149CT

Hit Count: updated at: Wed, 04 Dec 2024 18:29:56 GMT